INNOSAT-2 (43738 NORAD) Tracking and Keplerian Element Data

This shows tracking and keplerian element data for the satellite.

Feedback or suggestion? Click here.




ElementValue
Catalog43738
NameINNOSAT-2
Epoch Orbit459
Epoch Day363.22549962
Epoch Year2018
RAAN68.3229
Inclination97.4813
Eccentricity0.0024091
Argument of Perigee225.4332
Mean Anonmoly134.4941
Mean Motion15.27803191
Decay Rate2.434E-05
L11 43738U 18096V 18363.22549962 .00002434 00000-0 91783-4 0 9994
L22 43738 97.4813 68.3229 0024091 225.4332 134.4941 15.27803191 4597

Live tracking and technical data element details for INNOSAT-2 (NORAD 43738). INNOSAT-2 can be tracked NOW for your location showing map with azimuth and elevation plus other details from your city location.

Track the satellite on the map from your city or location and see movement details for azimuth, elevation, latitude, longitude, range, height, and movement on the map or in text.







IsCatalogInMostPopularTable: catalog: 43738, numindb: 30
Update: records affected: 1



GetName: 43738 INNOSAT-2

Hit Count: updated at: Wed, 23 Jan 2019 03:41:31 GMT